Terug naar catalogus

STARLINK-6332

ActiefCommunicatieVLEO
NORAD 57339·PAYLOAD·🇺🇸 United States

Gelanceerd Jul 16, 2023 vanaf Cape Canaveral Space Force Station

Loading…

Volgende Passages (komende 24 uur)

TLE

VersSource: CelesTrak SupGP

Epoch: Sep 15, 2026, 02:31 UTC

1 57339C 23099M   26258.10534722 -.00017242  00000+0 -62457-3 0  2589
2 57339  42.9992 262.8043 0001269 263.2645  97.6206 15.27583410    12

Volg STARLINK-6332 in realtime met AllMySat

Download on the App Store